Hourly Data Report for March 24, 2017

OTTAWA INTL A
ONTARIO

45°19'00.000" N
75°40'00.000" W
114.90 m
6106001
71628
YOW

Download Data

Hourly Data (March 2017)
Hourly Data Report for March 24, 2017
TIME
LST
Temp Definition
°C
Dew Point Definition
°C
Rel Hum Definition
%
Precip. Amount Definition
mm

Wind Dir Definition
10's deg

Wind Spd Definition
km/h
Visibility Definition
km
Stn Press Definition
kPa
Hmdx Definition


Wind Chill Definition


Weather Definition


00:00 -2.0 -10.4 53   18 13 24.1 101.31   -6 LegendNANA
01:00 -1.9 -12.1 46   18 12 24.1 101.30   -6 Cloudy
02:00 -2.3 -11.4 50   16 7 24.1 101.31   -5 LegendNANA
03:00 -2.5 -10.4 55   14 9 24.1 101.15   -6 LegendNANA
04:00 -2.3 -10.6 53   18 7 24.1 101.07   -5 Cloudy
05:00 -3.9 -5.8 87   21 9 1.6 101.08   -8 Snow
06:00 -4.3 -5.0 95   8 14 1.2 100.83   -9 Snow
07:00 -4.0 -5.0 93   8 8 12.9 100.86   -7 Cloudy
08:00 -3.7 -4.5 94   9 4 1.2 100.84   -5 Snow
09:00 -2.8 -3.8 93   12 12 4.8 100.67   -7 Snow
10:00 -1.9 -2.6 95   13 13 4.8 100.56   -6 Snow
11:00 -1.3 -2.1 94   11 10 3.2 100.51   -5 Snow
12:00 -1.0 -1.6 96   8 8 1.2 100.36   -4 Snow
13:00 -0.6 -1.3 95   11 10 6.4 100.22   -4 Snow
14:00 0.1 -0.8 94   10 13 16.1 100.13     Rain
15:00 0.2 -0.5 95   9 4 9.7 100.15     Rain, Fog
16:00 0.2 -0.1 98   7 8 9.7 100.13     Rain
17:00 0.2 -0.1 98   5 3 3.2 100.22     Snow,Ice Pellets
18:00 0.0 -0.1 99   36 2 1.2 100.30   -1 Snow
19:00 0.0 -0.1 99   30 4 1.2 100.38   -1 Snow
20:00 0.0 -0.1 99   34 12 0.6 100.53   -4 Snow
21:00 -0.1 -0.2 99   31 8 2.0 100.64   -3 Snow
22:00 -0.3 -0.4 99   33 13 3.2 100.63   -4 Snow, Fog
23:00 -0.4 -0.5 99   31 8 6.4 100.68   -3 Fog

Notes on Data Quality.

Legend

  • E = Estimated
  • M = Missing
  • NA = Not Available*
  • [empty] = Indicates an unobserved value
Date modified: